Weather in Romodanovo

Russia / Republic of Mordovia     54°24′50″N   45°20′59″E
temp.,
°C
wind,
m/s
gust,
m/s
humid.,
%
clouds,
%
prec.,
mm/h
press.,
hPa
HPBL,
m
5 december, sun
sun500:00−3wsw5107972 0.0 1012826
03:00−3w598163 0.0 1014801
06:00−3w48845 0.0 1014502
09:00−3wsw368417 0.0 1016396
12:00−2w3472100 0.0 1017432
15:00−2wsw2376100 0.0 1018192
18:00−2ssw2383100 0.0 1018119
21:00−3ssw229126 0.0 101930
6 december, mon
mon600:00−3wsw119329 0.0 102122
03:00−4ssw22955 0.0 102225
06:00−5s119671 0.0 102215
09:00−4ssw2393100 0.0 102462
12:00−2ssw238395 0.0 1025160
15:00−3sse1189100 0.0 102521
18:00−3se2289100 0.0 102650
21:00−2se2585100 0.0 1027142
7 december, tue
tue700:00−2se378134 0.0 1027217
03:00−3se3885100 0.0 1028201
06:00−4se51184100 0.0 1027292
09:00−4se61380100 0.0 1027430
12:00−2sse71570100 0.0 1026640
15:00−1sse71564100 0.0 1024629
18:00−3sse81794100 1.0 1023571
21:00−2sse91994100 3.9 1021578
8 december, wed
wed800:000s81894100 3.0 1020654
03:00+1s81892100 3.9 1019584
06:00+1s81894100 0.0 1019544
09:00+2s71796100 0.0 1020530
12:00+2s71797100 0.0 1020515
15:00+2s51492100 0.0 1020425
18:00+2sse51391100 0.0 1020366
21:00+2sse41290100 0.0 1020334
9 december, thu
thu900:00+1se3992100 0.0 1021212
03:00+1se41290100 0.0 1020314
06:00+1se51190100 0.0 1020311
09:000se51288100 0.0 1020340
12:00+1se41087100 0.0 1020402
15:000se4889100 0.0 1019278
18:000se4990100 0.0 1019335
21:00−1sse4992100 0.0 1019343